Manchester, NH

8:41 AM EST on February 28, 2017 (GMT -0500)
Manchester

Weather History for KMHT - January, 2014

Change the Weather History Date:

Wednesday, January 1, 2014

  Actual Average Record
Temperature  
Mean Temperature 20 °F 26 °F  
Max Temperature 24 °F 34 °F 55 °F (2011)
Min Temperature 16 °F 17 °F -22 °F (1964)
Degree Days  
Heating Degree Days 45 39  
Month to date heating degree days 39  
Since 1 July heating degree days 2407  
Cooling Degree Days 0 0  
Month to date cooling degree days 0  
Year to date cooling degree days 0  
Moisture  
Dew Point 5 °F    
Average Humidity 54    
Maximum Humidity 68    
Minimum Humidity 42    
Precipitation  
Precipitation 0.00 in 0.13 in 0.94 in (1973)
Month to date precipitation 0.13  
Year to date precipitation 0.13  
Snow  
Snow 0.00 in - - ()
Month to date snowfall  
Since 1 July snowfall  
Snow Depth 2.00 in    
Sea Level Pressure  
Sea Level Pressure 30.36 in    
Wind  
Wind Speed 6 mph (WSW)    
Max Wind Speed 13 mph    
Max Gust Speed 18 mph    
Visibility 10 miles    
Events Snow    
T = Trace of Precipitation, MM = Missing Value Source: NWS Daily Summary

Daily Weather History Graph

Daily Weather History Graph

Search for Another Location

Airport or City:

Trip Planner

Search our weather history database for the weather conditions in past years. The results will help you decide how hot, cold, wet, or windy it might be!

Date:

Astronomy

Jan. 01, 2014 Rise Set
Actual Time 7:16 AM EST 4:22 PM EST
Civil Twilight 6:44 AM EST 4:54 PM EST
Nautical Twilight 6:09 AM EST 5:29 PM EST
Astronomical Twilight 5:34 AM EST 6:04 PM EST
Moon 7:02 AM EST (1/1) 5:05 PM EST (1/1)
Length of Visible Light 10h 09m
Length of Day
9h 05m
New Moon, 0% of the Moon is Illuminated
Jan 1
New Moon
Jan 7
First Quarter
Jan 15
Full
Jan 24
Last Quarter
Jan 30
New

Hourly Weather History & Observations

Time (EST) Temp. Windchill Dew Point Humidity Pressure Visibility Wind Dir Wind Speed Gust Speed Precip Events Conditions
12:53 AM 19.9 °F 11.1 °F 5.0 °F 52% 30.21 in 10.0 mi Variable 6.9 mph - N/A   Clear
1:53 AM 18.0 °F 9.8 °F 3.9 °F 54% 30.23 in 10.0 mi SSW 5.8 mph - N/A   Clear
2:53 AM 18.0 °F 11.1 °F 3.9 °F 54% 30.27 in 10.0 mi SSW 4.6 mph - N/A   Clear
3:53 AM 17.1 °F 10.0 °F 3.9 °F 56% 30.27 in 10.0 mi SSW 4.6 mph - N/A   Clear
4:53 AM 16.0 °F 8.8 °F 3.0 °F 57% 30.30 in 10.0 mi SSW 4.6 mph - N/A   Clear
5:53 AM 16.0 °F 8.8 °F 3.0 °F 57% 30.32 in 10.0 mi SW 4.6 mph - N/A   Clear
6:53 AM 16.0 °F 7.4 °F 3.0 °F 57% 30.34 in 10.0 mi SW 5.8 mph - N/A   Clear
7:53 AM 16.0 °F 7.4 °F 3.9 °F 59% 30.36 in 10.0 mi SW 5.8 mph - N/A   Partly Cloudy
8:53 AM 18.0 °F 7.7 °F 6.1 °F 60% 30.38 in 10.0 mi SW 8.1 mph - N/A   Partly Cloudy
9:53 AM 19.9 °F 10.1 °F 6.1 °F 55% 30.39 in 10.0 mi SW 8.1 mph - N/A   Partly Cloudy
10:53 AM 21.9 °F 12.5 °F 3.0 °F 44% 30.38 in 10.0 mi West 8.1 mph - N/A   Mostly Cloudy
11:53 AM 23.0 °F 12.4 °F 3.0 °F 42% 30.36 in 10.0 mi West 10.4 mph 17.3 mph N/A   Mostly Cloudy
12:53 PM 23.0 °F 13.1 °F 3.0 °F 42% 30.35 in 10.0 mi West 9.2 mph 18.4 mph N/A   Mostly Cloudy
1:53 PM 24.1 °F 12.5 °F 3.9 °F 42% 30.36 in 10.0 mi West 12.7 mph 18.4 mph N/A   Mostly Cloudy
2:53 PM 23.0 °F 11.1 °F 3.9 °F 44% 30.37 in 10.0 mi WNW 12.7 mph - N/A   Mostly Cloudy
3:53 PM 23.0 °F 12.4 °F 5.0 °F 46% 30.38 in 10.0 mi WNW 10.4 mph - N/A   Mostly Cloudy
4:53 PM 21.9 °F 14.5 °F 6.1 °F 51% 30.39 in 10.0 mi NW 5.8 mph - N/A   Scattered Clouds
5:53 PM 21.0 °F - 6.1 °F 53% 30.40 in 10.0 mi Calm Calm - N/A   Scattered Clouds
6:53 PM 19.9 °F 13.4 °F 6.1 °F 55% 30.40 in 10.0 mi West 4.6 mph - N/A   Scattered Clouds
7:53 PM 19.0 °F 12.3 °F 6.1 °F 57% 30.41 in 10.0 mi WNW 4.6 mph - N/A   Mostly Cloudy
8:53 PM 19.0 °F 13.9 °F 7.0 °F 59% 30.41 in 10.0 mi NNW 3.5 mph - N/A   Mostly Cloudy
9:53 PM 18.0 °F - 9.0 °F 68% 30.42 in 10.0 mi Calm Calm - N/A   Mostly Cloudy
10:53 PM 18.0 °F - 9.0 °F 68% 30.42 in 10.0 mi Calm Calm - N/A   Overcast
11:53 PM 18.0 °F 9.8 °F 9.0 °F 68% 30.41 in 10.0 mi North 5.8 mph - 0.00 in Snow Light Snow